| time (UTC) | temp F | wind direction | speed MPH | gust MPH | rain 1hr in | rain 24hr in | rain mn in | humidity % | barometer mb |
| 20260507054345 | 58 | 134 | 1.0 | 6.0 | 0.00 | 0.03 | 0.03 | 69 | 1001.0 |
| 20260507053346 | 56 | 125 | 1.0 | 2.0 | 0.00 | 0.03 | 0.03 | 70 | 1001.0 |
| 20260507052346 | 56 | 149 | 0.0 | 1.0 | 0.00 | 0.03 | 0.03 | 70 | 1001.0 |
| 20260507051346 | 55 | 121 | 1.0 | 2.0 | 0.00 | 0.03 | 0.03 | 70 | 1000.9 |
| 20260507050346 | 55 | 130 | 0.0 | 2.0 | 0.00 | 0.05 | 0.03 | 70 | 1000.9 |
| 20260507045346 | 55 | 150 | 1.0 | 1.0 | 0.00 | 0.05 | 0.03 | 70 | 1000.7 |
| 20260507044346 | 55 | 144 | 1.0 | 2.0 | 0.00 | 0.05 | 0.03 | 71 | 1000.7 |
| 20260507043346 | 54 | 128 | 2.0 | 5.0 | 0.00 | 0.05 | 0.03 | 71 | 1000.5 |
| 20260507042346 | 54 | 156 | 0.0 | 1.0 | 0.00 | 0.05 | 0.03 | 71 | 1000.6 |
| 20260507041346 | 54 | 133 | 0.0 | 0.0 | 0.00 | 0.05 | 0.03 | 71 | 1000.4 |
| 20260507040345 | 54 | 148 | 1.0 | 3.0 | 0.00 | 0.05 | 0.03 | 71 | 1000.2 |
| 20260507035345 | 54 | 140 | 3.0 | 5.0 | 0.00 | 0.05 | 0.03 | 72 | 1000.3 |
| 20260507034346 | 54 | 119 | 2.0 | 4.0 | 0.00 | 0.05 | 0.03 | 72 | 1000.2 |
| 20260507033346 | 54 | 129 | 1.0 | 2.0 | 0.00 | 0.05 | 0.03 | 72 | 1000.3 |
| 20260507032346 | 54 | 151 | 0.0 | 1.0 | 0.00 | 0.05 | 0.03 | 72 | 1000.3 |
| 20260507031347 | 54 | 125 | 2.0 | 3.0 | 0.00 | 0.05 | 0.03 | 72 | 1000.3 |
| 20260507030345 | 54 | 135 | 2.0 | 2.0 | 0.00 | 0.05 | 0.03 | 73 | 1000.3 |
| 20260507025346 | 54 | 128 | 1.0 | 2.0 | 0.00 | 0.05 | 0.03 | 74 | 1000.3 |
| 20260507024345 | 54 | 114 | 2.0 | 2.0 | 0.00 | 0.05 | 0.03 | 74 | 1000.4 |
| 20260507023344 | 54 | 112 | 2.0 | 3.0 | 0.00 | 0.05 | 0.03 | 74 | 1000.2 |
| 20260507022345 | 55 | 112 | 3.0 | 4.0 | 0.00 | 0.05 | 0.03 | 74 | 1000.2 |
| 20260507021345 | 55 | 113 | 3.0 | 6.0 | 0.00 | 0.05 | 0.03 | 76 | 1000.2 |
| 20260507020345 | 55 | 128 | 1.0 | 4.0 | 0.03 | 0.05 | 0.03 | 76 | 1000.3 |
| 20260507015344 | 55 | 138 | 2.0 | 3.0 | 0.03 | 0.05 | 0.03 | 76 | 1000.3 |
| 20260507014342 | 55 | 126 | 2.0 | 4.0 | 0.03 | 0.05 | 0.03 | 77 | 1000.3 |
| 20260507013343 | 55 | 151 | 2.0 | 2.0 | 0.03 | 0.05 | 0.03 | 77 | 1000.3 |
| 20260507012342 | 55 | 130 | 2.0 | 4.0 | 0.03 | 0.05 | 0.03 | 77 | 1000.2 |
| 20260507011343 | 55 | 138 | 0.0 | 1.0 | 0.03 | 0.05 | 0.03 | 77 | 1000.2 |
| 20260507010342 | 56 | 146 | 1.0 | 2.0 | 0.00 | 0.03 | 0.00 | 77 | 1000.1 |
| 20260507005343 | 56 | 137 | 2.0 | 3.0 | 0.00 | 0.03 | 0.00 | 77 | 1000.1 |
| 20260507004343 | 56 | 124 | 0.0 | 2.0 | 0.00 | 0.03 | 0.00 | 77 | 1000.1 |
| 20260507003344 | 56 | 131 | 1.0 | 3.0 | 0.00 | 0.03 | 0.00 | 77 | 1000.1 |
| 20260507002342 | 56 | 147 | 2.0 | 5.0 | 0.00 | 0.03 | 0.00 | 77 | 999.9 |
| 20260507001342 | 56 | 147 | 1.0 | 2.0 | 0.00 | 0.03 | 0.00 | 77 | 1000.2 |
| 20260507000343 | 56 | 186 | 1.0 | 2.0 | 0.00 | 0.03 | 0.00 | 76 | 1000.3 |
| 20260506235341 | 57 | 139 | 1.0 | 3.0 | 0.00 | 0.03 | 0.00 | 76 | 1000.3 |
| 20260506234342 | 57 | 132 | 1.0 | 5.0 | 0.00 | 0.03 | 0.00 | 76 | 1000.1 |
| 20260506233342 | 57 | 129 | 1.0 | 1.0 | 0.00 | 0.03 | 0.00 | 76 | 1000.2 |
| 20260506232341 | 57 | 112 | 3.0 | 4.0 | 0.00 | 0.03 | 0.00 | 76 | 1000.3 |
| 20260506231342 | 57 | 126 | 2.0 | 4.0 | 0.00 | 0.03 | 0.00 | 76 | 1000.2 |
| 20260506230342 | 57 | 112 | 1.0 | 2.0 | 0.00 | 0.03 | 0.00 | 76 | 1000.3 |
| 20260506225342 | 57 | 135 | 0.0 | 1.0 | 0.00 | 0.03 | 0.00 | 76 | 1000.3 |
| 20260506224343 | 58 | 115 | 3.0 | 4.0 | 0.00 | 0.03 | 0.00 | 76 | 1000.3 |
| 20260506223341 | 57 | 125 | 2.0 | 4.0 | 0.00 | 0.03 | 0.00 | 76 | 1000.4 |
| 20260506222342 | 58 | 119 | 2.0 | 2.0 | 0.00 | 0.03 | 0.00 | 76 | 1000.4 |
| 20260506221341 | 58 | 126 | 3.0 | 5.0 | 0.00 | 0.03 | 0.00 | 77 | 1000.3 |
| 20260506220341 | 57 | 126 | 3.0 | 4.0 | 0.00 | 0.03 | 0.00 | 78 | 1000.5 |
| 20260506215731 | 57 | 112 | 4.0 | 5.0 | 0.00 | 0.03 | 0.03 | 79 | 1000.4 |
| 20260506214731 | 57 | 108 | 6.0 | 9.0 | 0.00 | 0.03 | 0.03 | 80 | 1000.4 |
| 20260506213731 | 58 | 122 | 2.0 | 3.0 | 0.00 | 0.03 | 0.03 | 82 | 1000.6 |
| 20260506212730 | 58 | 100 | 2.0 | 4.0 | 0.00 | 0.03 | 0.03 | 83 | 1000.5 |
| 20260506211730 | 58 | 131 | 3.0 | 4.0 | 0.00 | 0.03 | 0.03 | 83 | 1000.5 |
| 20260506210730 | 59 | 114 | 1.0 | 3.0 | 0.00 | 0.03 | 0.03 | 83 | 1000.5 |
| 20260506205730 | 59 | 126 | 1.0 | 3.0 | 0.00 | 0.03 | 0.03 | 83 | 1000.4 |
| 20260506204729 | 59 | 117 | 3.0 | 4.0 | 0.00 | 0.03 | 0.03 | 83 | 1000.3 |
| 20260506203730 | 59 | 126 | 3.0 | 4.0 | 0.00 | 0.03 | 0.03 | 83 | 1000.5 |
| 20260506202730 | 59 | 149 | 3.0 | 6.0 | 0.00 | 0.03 | 0.03 | 83 | 1000.5 |
| 20260506202343 | 59 | 144 | 0.0 | 2.0 | 0.00 | 0.03 | 0.03 | 83 | 1000.5 |
| 20260506201341 | 59 | 132 | 0.0 | 2.0 | 0.00 | 0.03 | 0.03 | 83 | 1000.5 |
| 20260506200342 | 59 | 131 | 1.0 | 2.0 | 0.00 | 0.03 | 0.03 | 83 | 1000.3 |
| 20260506195341 | 60 | 132 | 3.0 | 5.0 | 0.00 | 0.03 | 0.03 | 83 | 1000.1 |
| 20260506194340 | 60 | 136 | 2.0 | 3.0 | 0.00 | 0.03 | 0.03 | 82 | 1000.0 |
| 20260506193340 | 60 | 93 | 2.0 | 5.0 | 0.00 | 0.03 | 0.03 | 82 | 999.9 |
| 20260506192341 | 60 | 126 | 1.0 | 3.0 | 0.00 | 0.03 | 0.03 | 81 | 999.9 |
| 20260506191341 | 60 | 118 | 3.0 | 8.0 | 0.00 | 0.03 | 0.03 | 80 | 999.8 |
| 20260506190340 | 61 | 112 | 0.0 | 0.0 | 0.00 | 0.03 | 0.03 | 80 | 999.6 |
| 20260506185341 | 61 | 122 | 2.0 | 3.0 | 0.00 | 0.03 | 0.03 | 79 | 999.5 |
| 20260506184341 | 61 | 144 | 2.0 | 3.0 | 0.00 | 0.03 | 0.03 | 79 | 999.5 |
| 20260506183340 | 61 | 147 | 1.0 | 2.0 | 0.00 | 0.03 | 0.03 | 79 | 999.4 |
| 20260506182341 | 62 | 143 | 1.0 | 3.0 | 0.00 | 0.03 | 0.03 | 79 | 999.4 |
| 20260506181341 | 62 | 143 | 3.0 | 6.0 | 0.00 | 0.03 | 0.03 | 78 | 999.4 |
| 20260506180340 | 62 | 166 | 1.0 | 2.0 | 0.00 | 0.03 | 0.03 | 78 | 999.2 |
| 20260506175023 | 62 | 135 | 2.0 | 2.0 | 0.00 | 0.03 | 0.03 | 78 | 999.3 |
| 20260506174024 | 62 | 178 | 1.0 | 1.0 | 0.00 | 0.03 | 0.03 | 77 | 999.3 |
| 20260506173024 | 62 | 178 | 1.0 | 0.0 | 0.00 | 0.03 | 0.03 | 77 | 999.3 |
| 20260506172024 | 63 | 183 | 3.0 | 4.0 | 0.00 | 0.03 | 0.03 | 77 | 999.4 |
| 20260506171024 | 63 | 192 | 1.0 | 0.0 | 0.00 | 0.03 | 0.03 | 78 | 999.3 |
| 20260506170023 | 63 | 196 | 1.0 | 3.0 | 0.00 | 0.03 | 0.03 | 77 | 999.2 |
| 20260506165023 | 63 | 156 | 6.0 | 11.0 | 0.00 | 0.03 | 0.03 | 77 | 999.1 |
| 20260506164023 | 63 | 186 | 1.0 | 2.0 | 0.00 | 0.03 | 0.03 | 78 | 999.1 |
| 20260506163024 | 63 | 125 | 1.0 | 3.0 | 0.00 | 0.03 | 0.03 | 78 | 999.2 |
| 20260506162022 | 63 | 180 | 1.0 | 2.0 | 0.00 | 0.03 | 0.03 | 78 | 999.2 |
| 20260506161023 | 63 | 193 | 3.0 | 3.0 | 0.00 | 0.03 | 0.03 | 79 | 999.4 |
| 20260506160023 | 63 | 163 | 1.0 | 6.0 | 0.00 | 0.03 | 0.03 | 79 | 999.3 |
| 20260506155023 | 63 | 142 | 2.0 | 4.0 | 0.00 | 0.03 | 0.03 | 78 | 999.4 |
| 20260506154024 | 63 | 148 | 2.0 | 6.0 | 0.00 | 0.03 | 0.03 | 78 | 999.4 |
| 20260506153023 | 63 | 159 | 1.0 | 2.0 | 0.00 | 0.03 | 0.03 | 78 | 999.4 |
| 20260506152024 | 63 | 179 | 2.0 | 5.0 | 0.00 | 0.03 | 0.03 | 77 | 999.3 |
| 20260506151022 | 64 | 206 | 3.0 | 4.0 | 0.00 | 0.03 | 0.03 | 76 | 999.2 |
| 20260506150037 | 64 | 202 | 6.0 | 10.0 | 0.00 | 0.03 | 0.03 | 76 | 999.3 |
| 20260506145022 | 64 | 119 | 2.0 | 4.0 | 0.00 | 0.03 | 0.03 | 77 | 999.2 |
| 20260506144342 | 64 | 126 | 1.0 | 1.0 | 0.00 | 0.03 | 0.03 | 77 | 999.2 |
| 20260506143341 | 64 | 188 | 5.0 | 10.0 | 0.00 | 0.03 | 0.03 | 76 | 999.4 |
| 20260506142340 | 64 | 223 | 4.0 | 5.0 | 0.00 | 0.03 | 0.03 | 75 | 999.2 |
| 20260506141341 | 65 | 154 | 2.0 | 7.0 | 0.00 | 0.03 | 0.03 | 74 | 999.3 |
| 20260506140341 | 65 | 171 | 3.0 | 11.0 | 0.00 | 0.03 | 0.03 | 73 | 999.3 |
| 20260506135341 | 67 | 175 | 7.0 | 18.0 | 0.00 | 0.03 | 0.03 | 71 | 999.1 |
| 20260506134341 | 68 | 190 | 5.0 | 15.0 | 0.00 | 0.03 | 0.03 | 70 | 999.1 |
| 20260506133340 | 68 | 191 | 6.0 | 6.0 | 0.00 | 0.03 | 0.03 | 69 | 999.3 |
| 20260506132341 | 68 | 160 | 2.0 | 3.0 | 0.00 | 0.03 | 0.03 | 69 | 999.4 |
| 20260506131340 | 69 | 198 | 2.0 | 5.0 | 0.00 | 0.03 | 0.03 | 68 | 999.4 |
| 20260506130341 | 67 | 162 | 8.0 | 9.0 | 0.00 | 0.03 | 0.03 | 68 | 999.5 |
| 20260506125340 | 66 | 142 | 5.0 | 5.0 | 0.00 | 0.03 | 0.03 | 68 | 999.6 |
| 20260506124340 | 66 | 153 | 3.0 | 5.0 | 0.00 | 0.03 | 0.03 | 66 | 999.8 |
| 20260506123340 | 67 | 141 | 4.0 | 5.0 | 0.00 | 0.03 | 0.03 | 62 | 999.9 |
| 20260506122341 | 69 | 147 | 2.0 | 16.0 | 0.00 | 0.03 | 0.03 | 60 | 999.6 |
| 20260506121341 | 68 | 165 | 2.0 | 2.0 | 0.00 | 0.03 | 0.03 | 58 | 999.6 |
| 20260506120340 | 68 | 206 | 6.0 | 11.0 | 0.00 | 0.03 | 0.03 | 59 | 999.5 |
| 20260506115340 | 68 | 201 | 4.0 | 11.0 | 0.00 | 0.03 | 0.03 | 60 | 999.5 |
| 20260506114341 | 68 | 222 | 6.0 | 8.0 | 0.00 | 0.03 | 0.03 | 58 | 999.5 |
| 20260506113340 | 68 | 135 | 4.0 | 4.0 | 0.00 | 0.03 | 0.03 | 60 | 999.4 |
| 20260506112339 | 69 | 243 | 4.0 | 6.0 | 0.00 | 0.03 | 0.03 | 58 | 999.6 |
| 20260506111339 | 68 | 136 | 3.0 | 4.0 | 0.00 | 0.03 | 0.03 | 60 | 999.7 |
| 20260506110340 | 68 | 222 | 4.0 | 9.0 | 0.00 | 0.03 | 0.03 | 61 | 999.8 |
| 20260506105341 | 68 | 191 | 6.0 | 6.0 | 0.00 | 0.03 | 0.03 | 60 | 999.7 |
| 20260506104339 | 67 | 211 | 10.0 | 18.0 | 0.00 | 0.03 | 0.03 | 62 | 999.9 |
| 20260506103340 | 66 | 120 | 2.0 | 6.0 | 0.00 | 0.03 | 0.03 | 63 | 999.9 |
| 20260506102340 | 65 | 233 | 1.0 | 6.0 | 0.00 | 0.03 | 0.03 | 64 | 1000.1 |
| 20260506101339 | 65 | 162 | 3.0 | 3.0 | 0.00 | 0.03 | 0.03 | 65 | 1000.0 |
| 20260506100340 | 65 | 174 | 2.0 | 3.0 | 0.00 | 0.03 | 0.03 | 67 | 1000.1 |
| 20260506095936 | 65 | 119 | 2.0 | 7.0 | 0.00 | 0.03 | 0.03 | 71 | 1000.1 |
| 20260506094937 | 65 | 119 | 4.0 | 6.0 | 0.00 | 0.03 | 0.03 | 71 | 1000.0 |
| 20260506093936 | 65 | 98 | 6.0 | 8.0 | 0.00 | 0.03 | 0.03 | 73 | 999.9 |
| 20260506092936 | 64 | 172 | 1.0 | 2.0 | 0.00 | 0.03 | 0.03 | 76 | 1000.0 |
| 20260506091937 | 63 | 129 | 2.0 | 4.0 | 0.00 | 0.03 | 0.03 | 77 | 999.9 |
| 20260506090935 | 62 | 123 | 6.0 | 7.0 | 0.00 | 0.03 | 0.03 | 76 | 1000.2 |
| 20260506085936 | 62 | 128 | 3.0 | 4.0 | 0.00 | 0.03 | 0.03 | 78 | 1000.1 |
| 20260506084935 | 61 | 142 | 4.0 | 6.0 | 0.00 | 0.03 | 0.03 | 79 | 999.9 |
| 20260506083936 | 61 | 168 | 3.0 | 4.0 | 0.00 | 0.03 | 0.03 | 80 | 999.9 |
| 20260506082937 | 60 | 138 | 1.0 | 2.0 | 0.00 | 0.03 | 0.03 | 80 | 999.7 |
| 20260506081935 | 60 | 150 | 2.0 | 3.0 | 0.00 | 0.03 | 0.03 | 80 | 999.7 |
| 20260506080936 | 59 | 139 | 2.0 | 2.0 | 0.00 | 0.03 | 0.03 | 80 | 999.7 |
| 20260506072427 | 59 | 141 | 2.0 | 5.0 | 0.00 | 0.03 | 0.03 | 81 | 999.6 |
| 20260506071336 | 59 | 152 | 2.0 | 2.0 | 0.00 | 0.03 | 0.03 | 82 | 999.7 |
| 20260506070336 | 59 | 138 | 2.0 | 3.0 | 0.00 | 0.03 | 0.03 | 83 | 999.7 |
| 20260506062336 | 56 | 153 | 1.0 | 2.0 | 0.00 | 0.03 | 0.03 | 82 | 999.7 |
| 20260506061334 | 56 | 154 | 1.0 | 3.0 | 0.00 | 0.05 | 0.03 | 81 | 999.6 |
| 20260506060335 | 55 | 141 | 2.0 | 3.0 | 0.03 | 0.05 | 0.03 | 79 | 999.7 |